Powrót do katalogu

CZ-6A DEB

AktywnySSO
NORAD 56682·DEBRIS·🇨🇳 China

Wystrzelony Nov 11, 2022 z Taiyuan Satellite Launch Center

Loading…

Następne Przeloty (najbliższe 24 godziny)

TLE

ŚwieżeSource: Space-Track

Epoka: Sep 14, 2026, 10:22 UTC

1 56682U 22151AHJ 26257.43248742  .00000608  00000-0  34747-3 0  9996
2 56682  98.8317 255.8828 0045220  66.2468 294.3437 14.12817389172723

Śledź CZ-6A DEB w czasie rzeczywistym z AllMySat

Download on the App Store